Location: West Cummington
(42.4920°N, 72.9680°W)
Time: 06:16:55
(UTC-04:00)

ATLAS 2AS CENTAUR R/B - Visible Passes

Search period start: 21 October 2014 00:00
Search period end: 31 October 2014 00:00
Orbit: 917 x 1296 km, 63.7° (Epoch: 19 October)

Date Brightness Start Highest point End Pass type
(mag) Time Alt. Az. Time Alt. Az. Time Alt. Az.
21 Oct 5.4 01:24:32 12° NNE 01:24:32 12° NNE 01:25:05 10° NNE visible
21 Oct 4.9 03:11:59 17° N 03:11:59 17° N 03:16:20 10° NNE visible
21 Oct 5.1 05:00:53 10° NNW 05:05:57 18° NNE 05:11:03 10° NE visible
22 Oct 5.1 02:28:42 17° N 02:28:42 17° N 02:31:20 10° NNE visible
22 Oct 5.1 04:16:09 11° NNW 04:20:13 16° N 04:24:50 10° NE visible
22 Oct 4.6 06:07:19 10° NNW 06:14:12 30° NE 06:21:03 10° E visible
23 Oct 5.4 01:45:27 13° NNE 01:45:27 13° NNE 01:46:31 10° NNE visible
23 Oct 5.0 03:32:53 15° NNW 03:34:28 15° N 03:38:53 10° NNE visible
23 Oct 4.9 05:22:35 10° NNW 05:28:47 24° NNE 05:34:59 10° ENE visible
24 Oct 5.1 02:49:39 16° N 02:49:39 16° N 02:53:22 10° NNE visible
24 Oct 5.0 04:37:46 10° NNW 04:43:14 19° NNE 04:48:44 10° ENE visible
24 Oct 4.0 06:28:41 10° NNW 06:36:27 47° NE 06:44:03 10° ESE visible
25 Oct 5.3 02:06:26 14° NNE 02:06:26 14° NNE 02:08:12 10° NNE visible
25 Oct 5.1 03:53:53 13° NNW 03:57:34 17° NNE 04:02:26 10° NE visible
25 Oct 4.4 05:44:01 10° NNW 05:51:17 35° NE 05:58:27 10° ESE visible
26 Oct 5.6 01:23:14 10° NNE 01:23:14 10° NNE 01:23:17 10° NNE visible
26 Oct 5.1 03:10:41 15° N 03:11:49 16° N 03:16:18 10° NE visible
26 Oct 4.7 04:59:19 10° NNW 05:05:57 27° NNE 05:12:33 10° E visible
27 Oct 5.2 02:27:33 15° N 02:27:33 15° N 02:30:31 10° NNE visible
27 Oct 4.9 04:15:00 11° NNW 04:20:28 22° NNE 04:26:24 10° ENE visible
27 Oct 3.7 06:05:23 10° NNW 06:13:22 57° NE 06:21:08 10° SE visible
28 Oct 5.5 01:44:27 12° NNE 01:44:27 12° NNE 01:45:09 10° NNE visible
28 Oct 5.0 03:31:54 15° N 03:34:52 18° NNE 03:40:06 10° ENE visible
28 Oct 4.1 05:20:42 10° NNW 05:28:17 42° NE 05:35:44 10° ESE visible
29 Oct 5.1 02:48:52 16° N 02:49:10 16° N 02:53:51 10° NE visible
29 Oct 4.5 04:36:20 11° NNW 04:43:03 31° NE 04:50:01 10° E visible
29 Oct 3.1 06:26:53 10° NW 06:35:01 84° WSW 06:42:53 10° SSE visible
30 Oct 5.4 02:05:55 13° NNE 02:05:55 13° NNE 02:07:50 10° NE visible
30 Oct 4.8 03:53:23 16° NNW 03:57:40 25° NNE 04:04:00 10° E visible
30 Oct 3.3 05:42:07 10° NNW 05:50:13 70° NE 05:58:05 10° SE visible
